Time,TemperatureF,DewpointF,PressureIn,WindDirection,WindDirectionDegrees,WindSpeedMPH,WindSpeedGustMPH,Humidity,HourlyPrecipIn,Conditions,Clouds,dailyrainin,SoftwareType,DateUTC
2013-03-01 00:02:00,30.4,9.5,29.39,North,-999,-999.0,-999.0,41,0.00,,,0.00,meteohub,2013-03-01 06:02:00,
2013-03-01 00:07:00,30.4,9.5,29.39,North,-999,-999.0,-999.0,41,0.00,,,0.00,meteohub,2013-03-01 06:07:00,
2013-03-01 00:12:00,30.4,9.5,29.39,North,-999,-999.0,-999.0,41,0.00,,,0.00,meteohub,2013-03-01 06:12:00,
2013-03-01 00:17:00,30.4,9.5,29.39,North,-999,-999.0,-999.0,41,0.00,,,0.00,meteohub,2013-03-01 06:17:00,
2013-03-01 00:22:00,30.4,9.5,29.39,North,-999,-999.0,-999.0,41,0.00,,,0.00,meteohub,2013-03-01 06:22:00,
2013-03-01 00:27:00,30.4,9.5,29.39,North,-999,-999.0,-999.0,41,0.00,,,0.00,meteohub,2013-03-01 06:27:00,
2013-03-01 00:32:00,30.4,9.5,29.39,North,-999,-999.0,-999.0,41,0.00,,,0.00,meteohub,2013-03-01 06:32:00,
2013-03-01 00:37:00,30.4,9.5,29.39,North,-999,-999.0,-999.0,41,0.00,,,0.00,meteohub,2013-03-01 06:37:00,
2013-03-01 00:42:00,30.4,9.5,29.39,North,-999,-999.0,-999.0,41,0.00,,,0.00,meteohub,2013-03-01 06:42:00,
2013-03-01 00:47:00,30.2,9.9,29.39,North,-999,-999.0,-999.0,42,0.00,,,0.00,meteohub,2013-03-01 06:47:00,
2013-03-01 00:52:00,30.2,9.9,29.39,North,-999,-999.0,-999.0,42,0.00,,,0.00,meteohub,2013-03-01 06:52:00,
2013-03-01 00:57:00,30.2,9.9,29.39,North,-999,-999.0,-999.0,42,0.00,,,0.00,meteohub,2013-03-01 06:57:00,
2013-03-01 01:02:00,30.2,9.9,29.39,North,-999,-999.0,-999.0,42,0.00,,,0.00,meteohub,2013-03-01 07:02:00,
2013-03-01 01:07:00,30.2,9.9,29.39,North,-999,-999.0,-999.0,42,0.00,,,0.00,meteohub,2013-03-01 07:07:00,
2013-03-01 01:12:00,30.2,9.9,29.39,North,-999,-999.0,-999.0,42,0.00,,,0.00,meteohub,2013-03-01 07:12:00,
2013-03-01 01:17:00,30.2,9.9,29.39,North,-999,-999.0,-999.0,42,0.00,,,0.00,meteohub,2013-03-01 07:17:00,
2013-03-01 01:23:00,30.2,9.9,29.39,North,-999,-999.0,-999.0,42,0.00,,,0.00,meteohub,2013-03-01 07:23:00,
2013-03-01 01:28:00,30.2,9.9,29.39,North,-999,-999.0,-999.0,42,0.00,,,0.00,meteohub,2013-03-01 07:28:00,
2013-03-01 01:33:00,30.2,9.9,29.39,North,-999,-999.0,-999.0,42,0.00,,,0.00,meteohub,2013-03-01 07:33:00,
2013-03-01 01:39:00,30.2,9.9,29.39,North,-999,-999.0,-999.0,42,0.00,,,0.00,meteohub,2013-03-01 07:39:00,
2013-03-01 01:44:00,30.2,9.9,29.39,North,-999,-999.0,-999.0,42,0.00,,,0.00,meteohub,2013-03-01 07:44:00,
2013-03-01 01:50:00,30.2,9.9,29.39,North,-999,-999.0,-999.0,42,0.00,,,0.00,meteohub,2013-03-01 07:50:00,
2013-03-01 01:55:00,30.2,9.9,29.39,North,-999,-999.0,-999.0,42,0.00,,,0.00,meteohub,2013-03-01 07:55:00,
2013-03-01 02:00:00,30.2,9.9,29.39,North,-999,-999.0,-999.0,42,0.00,,,0.00,meteohub,2013-03-01 08:00:00,
2013-03-01 02:06:00,30.2,9.9,29.39,North,-999,-999.0,-999.0,42,0.00,,,0.00,meteohub,2013-03-01 08:06:00,
2013-03-01 02:11:00,30.2,9.9,29.39,North,-999,-999.0,-999.0,42,0.00,,,0.00,meteohub,2013-03-01 08:11:00,
2013-03-01 02:16:00,30.0,9.7,29.39,North,-999,-999.0,-999.0,42,0.00,,,0.00,meteohub,2013-03-01 08:16:00,
2013-03-01 02:22:00,30.0,9.7,29.39,North,-999,-999.0,-999.0,42,0.00,,,0.00,meteohub,2013-03-01 08:22:00,
2013-03-01 02:27:00,30.0,9.7,29.39,North,-999,-999.0,-999.0,42,0.00,,,0.00,meteohub,2013-03-01 08:27:00,
2013-03-01 02:32:00,30.0,9.7,29.39,North,-999,-999.0,-999.0,42,0.00,,,0.00,meteohub,2013-03-01 08:32:00,
2013-03-01 02:37:00,30.0,9.7,29.39,North,-999,-999.0,-999.0,42,0.00,,,0.00,meteohub,2013-03-01 08:37:00,
2013-03-01 02:42:00,30.0,9.7,29.39,North,-999,-999.0,-999.0,42,0.00,,,0.00,meteohub,2013-03-01 08:42:00,
2013-03-01 02:47:00,30.0,9.7,29.39,North,-999,-999.0,-999.0,42,0.00,,,0.00,meteohub,2013-03-01 08:47:00,
2013-03-01 02:53:00,30.0,9.7,29.39,North,-999,-999.0,-999.0,42,0.00,,,0.00,meteohub,2013-03-01 08:53:00,
2013-03-01 02:58:00,30.0,9.7,29.39,North,-999,-999.0,-999.0,42,0.00,,,0.00,meteohub,2013-03-01 08:58:00,
2013-03-01 03:04:00,30.0,9.7,29.39,North,-999,-999.0,-999.0,42,0.00,,,0.00,meteohub,2013-03-01 09:04:00,
2013-03-01 03:09:00,29.8,9.5,29.39,North,-999,-999.0,-999.0,42,0.00,,,0.00,meteohub,2013-03-01 09:09:00,
2013-03-01 03:14:00,30.0,9.7,29.39,North,-999,-999.0,-999.0,42,0.00,,,0.00,meteohub,2013-03-01 09:14:00,
2013-03-01 03:20:00,29.8,9.5,29.39,North,-999,-999.0,-999.0,42,0.00,,,0.00,meteohub,2013-03-01 09:20:00,
2013-03-01 03:25:00,29.8,9.5,29.39,North,-999,-999.0,-999.0,42,0.00,,,0.00,meteohub,2013-03-01 09:25:00,
2013-03-01 03:30:00,29.8,9.0,29.39,North,-999,-999.0,-999.0,41,0.00,,,0.00,meteohub,2013-03-01 09:30:00,
2013-03-01 03:36:00,29.7,8.8,29.39,North,-999,-999.0,-999.0,41,0.00,,,0.00,meteohub,2013-03-01 09:36:00,
2013-03-01 03:41:00,29.7,9.3,29.39,North,-999,-999.0,-999.0,42,0.00,,,0.00,meteohub,2013-03-01 09:41:00,
2013-03-01 03:46:00,29.7,9.3,29.39,North,-999,-999.0,-999.0,42,0.00,,,0.00,meteohub,2013-03-01 09:46:00,
2013-03-01 03:52:00,29.7,8.8,29.39,North,-999,-999.0,-999.0,41,0.00,,,0.00,meteohub,2013-03-01 09:52:00,
2013-03-01 03:57:00,29.5,9.1,29.39,North,-999,-999.0,-999.0,42,0.00,,,0.00,meteohub,2013-03-01 09:57:00,
2013-03-01 04:02:00,29.5,9.1,29.39,North,-999,-999.0,-999.0,42,0.00,,,0.00,meteohub,2013-03-01 10:02:00,
2013-03-01 04:07:00,29.5,8.6,29.39,North,-999,-999.0,-999.0,41,0.00,,,0.00,meteohub,2013-03-01 10:07:00,
2013-03-01 04:12:00,29.5,8.6,29.39,North,-999,-999.0,-999.0,41,0.00,,,0.00,meteohub,2013-03-01 10:12:00,
2013-03-01 04:18:00,29.3,9.0,29.39,North,-999,-999.0,-999.0,42,0.00,,,0.00,meteohub,2013-03-01 10:18:00,
2013-03-01 04:23:00,29.3,9.0,29.39,North,-999,-999.0,-999.0,42,0.00,,,0.00,meteohub,2013-03-01 10:23:00,
2013-03-01 04:28:00,29.3,9.0,29.39,North,-999,-999.0,-999.0,42,0.00,,,0.00,meteohub,2013-03-01 10:28:00,
2013-03-01 04:34:00,29.3,9.0,29.39,North,-999,-999.0,-999.0,42,0.00,,,0.00,meteohub,2013-03-01 10:34:00,
2013-03-01 04:39:00,29.1,9.0,29.39,North,-999,-999.0,-999.0,42,0.00,,,0.00,meteohub,2013-03-01 10:39:00,
2013-03-01 04:44:00,29.1,9.0,29.39,North,-999,-999.0,-999.0,42,0.00,,,0.00,meteohub,2013-03-01 10:44:00,
2013-03-01 04:49:00,29.1,9.0,29.39,North,-999,-999.0,-999.0,42,0.00,,,0.00,meteohub,2013-03-01 10:49:00,
2013-03-01 04:55:00,28.9,8.8,29.39,North,-999,-999.0,-999.0,42,0.00,,,0.00,meteohub,2013-03-01 10:55:00,
2013-03-01 05:00:00,28.9,8.8,29.39,North,-999,-999.0,-999.0,42,0.00,,,0.00,meteohub,2013-03-01 11:00:00,
2013-03-01 05:05:00,28.9,8.8,29.39,North,-999,-999.0,-999.0,42,0.00,,,0.00,meteohub,2013-03-01 11:05:00,
2013-03-01 05:11:00,28.9,8.8,29.39,North,-999,-999.0,-999.0,42,0.00,,,0.00,meteohub,2013-03-01 11:11:00,
2013-03-01 05:16:00,28.9,8.8,29.39,North,-999,-999.0,-999.0,42,0.00,,,0.00,meteohub,2013-03-01 11:16:00,
2013-03-01 05:21:00,28.8,8.6,29.39,North,-999,-999.0,-999.0,42,0.00,,,0.00,meteohub,2013-03-01 11:21:00,
2013-03-01 05:26:00,28.8,8.6,29.39,North,-999,-999.0,-999.0,42,0.00,,,0.00,meteohub,2013-03-01 11:26:00,
2013-03-01 05:32:00,28.8,8.6,29.39,North,-999,-999.0,-999.0,42,0.00,,,0.00,meteohub,2013-03-01 11:32:00,
2013-03-01 05:37:00,28.8,8.6,29.39,North,-999,-999.0,-999.0,42,0.00,,,0.00,meteohub,2013-03-01 11:37:00,
2013-03-01 05:42:00,28.6,8.4,29.39,North,-999,-999.0,-999.0,42,0.00,,,0.00,meteohub,2013-03-01 11:42:00,
2013-03-01 05:47:00,28.6,8.4,29.39,North,-999,-999.0,-999.0,42,0.00,,,0.00,meteohub,2013-03-01 11:47:00,
2013-03-01 05:52:00,28.6,8.4,29.39,North,-999,-999.0,-999.0,42,0.00,,,0.00,meteohub,2013-03-01 11:52:00,
2013-03-01 05:58:00,28.6,8.4,29.39,North,-999,-999.0,-999.0,42,0.00,,,0.00,meteohub,2013-03-01 11:58:00,
2013-03-01 06:03:00,28.4,8.2,29.39,North,-999,-999.0,-999.0,42,0.00,,,0.00,meteohub,2013-03-01 12:03:00,
2013-03-01 06:08:00,28.4,8.2,29.39,North,-999,-999.0,-999.0,42,0.00,,,0.00,meteohub,2013-03-01 12:08:00,
2013-03-01 06:13:00,28.2,8.1,29.42,North,-999,-999.0,-999.0,42,0.00,,,0.00,meteohub,2013-03-01 12:13:00,
2013-03-01 06:19:00,28.2,8.6,29.42,North,-999,-999.0,-999.0,43,0.00,,,0.00,meteohub,2013-03-01 12:19:00,
2013-03-01 06:24:00,28.2,8.1,29.42,North,-999,-999.0,-999.0,42,0.00,,,0.00,meteohub,2013-03-01 12:24:00,
2013-03-01 06:29:00,28.2,8.1,29.42,North,-999,-999.0,-999.0,42,0.00,,,0.00,meteohub,2013-03-01 12:29:00,
2013-03-01 06:35:00,28.2,8.1,29.42,North,-999,-999.0,-999.0,42,0.00,,,0.00,meteohub,2013-03-01 12:35:00,
2013-03-01 06:40:00,28.0,7.9,29.42,North,-999,-999.0,-999.0,42,0.00,,,0.00,meteohub,2013-03-01 12:40:00,
2013-03-01 06:45:00,28.0,7.9,29.42,North,-999,-999.0,-999.0,42,0.00,,,0.00,meteohub,2013-03-01 12:45:00,
2013-03-01 06:51:00,28.0,7.9,29.42,North,-999,-999.0,-999.0,42,0.00,,,0.00,meteohub,2013-03-01 12:51:00,
2013-03-01 06:56:00,28.0,7.9,29.42,North,-999,-999.0,-999.0,42,0.00,,,0.00,meteohub,2013-03-01 12:56:00,
2013-03-01 07:01:00,28.0,7.9,29.42,North,-999,-999.0,-999.0,42,0.00,,,0.00,meteohub,2013-03-01 13:01:00,
2013-03-01 07:07:00,28.0,7.9,29.42,North,-999,-999.0,-999.0,42,0.00,,,0.00,meteohub,2013-03-01 13:07:00,
2013-03-01 07:12:00,28.0,7.9,29.42,North,-999,-999.0,-999.0,42,0.00,,,0.00,meteohub,2013-03-01 13:12:00,
2013-03-01 07:17:00,28.0,7.9,29.42,North,-999,-999.0,-999.0,42,0.00,,,0.00,meteohub,2013-03-01 13:17:00,
2013-03-01 07:22:00,28.0,7.9,29.42,North,-999,-999.0,-999.0,42,0.00,,,0.00,meteohub,2013-03-01 13:22:00,
2013-03-01 07:27:00,28.0,7.9,29.42,North,-999,-999.0,-999.0,42,0.00,,,0.00,meteohub,2013-03-01 13:27:00,
2013-03-01 07:32:00,28.0,7.9,29.42,North,-999,-999.0,-999.0,42,0.00,,,0.00,meteohub,2013-03-01 13:32:00,
2013-03-01 07:37:00,28.0,7.9,29.42,North,-999,-999.0,-999.0,42,0.00,,,0.00,meteohub,2013-03-01 13:37:00,
2013-03-01 07:42:00,28.0,7.9,29.42,North,-999,-999.0,-999.0,42,0.00,,,0.00,meteohub,2013-03-01 13:42:00,
2013-03-01 07:47:00,28.0,7.9,29.42,North,-999,-999.0,-999.0,42,0.00,,,0.00,meteohub,2013-03-01 13:47:00,
2013-03-01 07:52:00,28.0,7.9,29.42,North,-999,-999.0,-999.0,42,0.00,,,0.00,meteohub,2013-03-01 13:52:00,
2013-03-01 07:57:00,28.0,7.9,29.42,North,-999,-999.0,-999.0,42,0.00,,,0.00,meteohub,2013-03-01 13:57:00,
2013-03-01 08:02:00,28.0,7.9,29.42,North,-999,-999.0,-999.0,42,0.00,,,0.00,meteohub,2013-03-01 14:02:00,
2013-03-01 08:07:00,28.2,8.1,29.42,North,-999,-999.0,-999.0,42,0.00,,,0.00,meteohub,2013-03-01 14:07:00,
2013-03-01 08:12:00,28.2,8.1,29.42,North,-999,-999.0,-999.0,42,0.00,,,0.00,meteohub,2013-03-01 14:12:00,
2013-03-01 08:17:00,28.4,8.2,29.42,North,-999,-999.0,-999.0,42,0.00,,,0.00,meteohub,2013-03-01 14:17:00,
2013-03-01 08:22:00,28.4,8.2,29.42,North,-999,-999.0,-999.0,42,0.00,,,0.00,meteohub,2013-03-01 14:22:00,
2013-03-01 08:27:00,28.4,8.2,29.42,North,-999,-999.0,-999.0,42,0.00,,,0.00,meteohub,2013-03-01 14:27:00,
2013-03-01 08:32:00,28.4,8.2,29.42,North,-999,-999.0,-999.0,42,0.00,,,0.00,meteohub,2013-03-01 14:32:00,
2013-03-01 08:38:00,28.6,7.9,29.42,North,-999,-999.0,-999.0,41,0.00,,,0.00,meteohub,2013-03-01 14:38:00,
2013-03-01 08:43:00,28.6,7.9,29.45,North,-999,-999.0,-999.0,41,0.00,,,0.00,meteohub,2013-03-01 14:43:00,
2013-03-01 08:48:00,28.6,7.9,29.45,North,-999,-999.0,-999.0,41,0.00,,,0.00,meteohub,2013-03-01 14:48:00,
2013-03-01 08:54:00,28.6,7.9,29.45,North,-999,-999.0,-999.0,41,0.00,,,0.00,meteohub,2013-03-01 14:54:00,
2013-03-01 08:59:00,28.6,7.9,29.45,North,-999,-999.0,-999.0,41,0.00,,,0.00,meteohub,2013-03-01 14:59:00,
2013-03-01 09:04:00,28.6,7.9,29.45,North,-999,-999.0,-999.0,41,0.00,,,0.00,meteohub,2013-03-01 15:04:00,
2013-03-01 09:10:00,28.6,7.9,29.45,North,-999,-999.0,-999.0,41,0.00,,,0.00,meteohub,2013-03-01 15:10:00,
2013-03-01 09:15:00,28.6,7.9,29.45,North,-999,-999.0,-999.0,41,0.00,,,0.00,meteohub,2013-03-01 15:15:00,
2013-03-01 09:20:00,28.8,8.1,29.45,North,-999,-999.0,-999.0,41,0.00,,,0.00,meteohub,2013-03-01 15:20:00,
2013-03-01 09:26:00,28.8,8.1,29.45,North,-999,-999.0,-999.0,41,0.00,,,0.00,meteohub,2013-03-01 15:26:00,
2013-03-01 09:31:00,28.9,8.2,29.45,North,-999,-999.0,-999.0,41,0.00,,,0.00,meteohub,2013-03-01 15:31:00,
2013-03-01 09:36:00,28.9,8.2,29.45,North,-999,-999.0,-999.0,41,0.00,,,0.00,meteohub,2013-03-01 15:36:00,
2013-03-01 09:41:00,28.9,8.2,29.45,North,-999,-999.0,-999.0,41,0.00,,,0.00,meteohub,2013-03-01 15:41:00,
2013-03-01 09:47:00,29.1,8.4,29.45,North,-999,-999.0,-999.0,41,0.00,,,0.00,meteohub,2013-03-01 15:47:00,
2013-03-01 09:52:00,28.9,8.2,29.45,North,-999,-999.0,-999.0,41,0.00,,,0.00,meteohub,2013-03-01 15:52:00,
2013-03-01 09:57:00,28.9,8.2,29.42,North,-999,-999.0,-999.0,41,0.00,,,0.00,meteohub,2013-03-01 15:57:00,
2013-03-01 10:02:00,29.3,8.6,29.42,North,-999,-999.0,-999.0,41,0.00,,,0.00,meteohub,2013-03-01 16:02:00,
2013-03-01 10:07:00,29.1,8.4,29.42,North,-999,-999.0,-999.0,41,0.00,,,0.00,meteohub,2013-03-01 16:07:00,
2013-03-01 10:12:00,29.5,8.6,29.45,North,-999,-999.0,-999.0,41,0.00,,,0.00,meteohub,2013-03-01 16:12:00,
2013-03-01 10:17:00,29.7,8.8,29.45,North,-999,-999.0,-999.0,41,0.00,,,0.00,meteohub,2013-03-01 16:17:00,
2013-03-01 10:23:00,29.7,8.8,29.45,North,-999,-999.0,-999.0,41,0.00,,,0.00,meteohub,2013-03-01 16:23:00,
2013-03-01 10:28:00,29.8,9.0,29.45,North,-999,-999.0,-999.0,41,0.00,,,0.00,meteohub,2013-03-01 16:28:00,
2013-03-01 10:33:00,29.7,8.8,29.45,North,-999,-999.0,-999.0,41,0.00,,,0.00,meteohub,2013-03-01 16:33:00,
2013-03-01 10:39:00,29.8,9.0,29.45,North,-999,-999.0,-999.0,41,0.00,,,0.00,meteohub,2013-03-01 16:39:00,
2013-03-01 10:44:00,30.0,9.1,29.45,North,-999,-999.0,-999.0,41,0.00,,,0.00,meteohub,2013-03-01 16:44:00,
2013-03-01 10:49:00,30.2,9.3,29.45,North,-999,-999.0,-999.0,41,0.00,,,0.00,meteohub,2013-03-01 16:49:00,
2013-03-01 10:55:00,30.4,9.5,29.45,North,-999,-999.0,-999.0,41,0.00,,,0.00,meteohub,2013-03-01 16:55:00,
2013-03-01 11:00:00,30.7,9.9,29.45,North,-999,-999.0,-999.0,41,0.00,,,0.00,meteohub,2013-03-01 17:00:00,
2013-03-01 11:05:00,30.7,9.9,29.45,North,-999,-999.0,-999.0,41,0.00,,,0.00,meteohub,2013-03-01 17:05:00,
2013-03-01 11:11:00,30.9,10.0,29.45,North,-999,-999.0,-999.0,41,0.00,,,0.00,meteohub,2013-03-01 17:11:00,
2013-03-01 11:16:00,30.6,9.7,29.45,North,-999,-999.0,-999.0,41,0.00,,,0.00,meteohub,2013-03-01 17:16:00,
2013-03-01 11:21:00,30.6,9.7,29.45,North,-999,-999.0,-999.0,41,0.00,,,0.00,meteohub,2013-03-01 17:21:00,
2013-03-01 11:27:00,30.4,9.5,29.45,North,-999,-999.0,-999.0,41,0.00,,,0.00,meteohub,2013-03-01 17:27:00,
2013-03-01 11:32:00,30.2,9.3,29.45,North,-999,-999.0,-999.0,41,0.00,,,0.00,meteohub,2013-03-01 17:32:00,
2013-03-01 11:37:00,30.6,9.7,29.45,North,-999,-999.0,-999.0,41,0.00,,,0.00,meteohub,2013-03-01 17:37:00,
2013-03-01 11:42:00,31.1,10.2,29.45,North,-999,-999.0,-999.0,41,0.00,,,0.00,meteohub,2013-03-01 17:42:00,
2013-03-01 11:47:00,30.9,10.0,29.45,North,-999,-999.0,-999.0,41,0.00,,,0.00,meteohub,2013-03-01 17:47:00,
2013-03-01 11:52:00,31.3,10.2,29.45,North,-999,-999.0,-999.0,41,0.00,,,0.00,meteohub,2013-03-01 17:52:00,
2013-03-01 11:57:00,31.3,10.2,29.45,North,-999,-999.0,-999.0,41,0.00,,,0.00,meteohub,2013-03-01 17:57:00,
2013-03-01 12:02:00,31.1,10.2,29.45,North,-999,-999.0,-999.0,41,0.00,,,0.00,meteohub,2013-03-01 18:02:00,
2013-03-01 12:08:00,31.3,10.2,29.45,North,-999,-999.0,-999.0,41,0.00,,,0.00,meteohub,2013-03-01 18:08:00,
2013-03-01 12:13:00,31.3,10.2,29.45,North,-999,-999.0,-999.0,41,0.00,,,0.00,meteohub,2013-03-01 18:13:00,
2013-03-01 12:18:00,31.5,10.4,29.45,North,-999,-999.0,-999.0,41,0.00,,,0.00,meteohub,2013-03-01 18:18:00,
2013-03-01 12:24:00,31.3,10.2,29.45,North,-999,-999.0,-999.0,41,0.00,,,0.00,meteohub,2013-03-01 18:24:00,
2013-03-01 12:29:00,31.6,10.6,29.42,North,-999,-999.0,-999.0,41,0.00,,,0.00,meteohub,2013-03-01 18:29:00,
2013-03-01 12:34:00,31.1,10.2,29.42,North,-999,-999.0,-999.0,41,0.00,,,0.00,meteohub,2013-03-01 18:34:00,
2013-03-01 12:39:00,30.9,10.0,29.42,North,-999,-999.0,-999.0,41,0.00,,,0.00,meteohub,2013-03-01 18:39:00,
2013-03-01 12:45:00,30.9,10.0,29.42,North,-999,-999.0,-999.0,41,0.00,,,0.00,meteohub,2013-03-01 18:45:00,
2013-03-01 12:50:00,30.7,9.9,29.42,North,-999,-999.0,-999.0,41,0.00,,,0.00,meteohub,2013-03-01 18:50:00,
2013-03-01 12:55:00,31.1,10.2,29.42,North,-999,-999.0,-999.0,41,0.00,,,0.00,meteohub,2013-03-01 18:55:00,
2013-03-01 13:01:00,30.9,10.0,29.42,North,-999,-999.0,-999.0,41,0.00,,,0.00,meteohub,2013-03-01 19:01:00,
2013-03-01 13:06:00,30.7,9.9,29.42,North,-999,-999.0,-999.0,41,0.00,,,0.00,meteohub,2013-03-01 19:06:00,
2013-03-01 13:11:00,30.9,10.0,29.42,North,-999,-999.0,-999.0,41,0.00,,,0.00,meteohub,2013-03-01 19:11:00,
2013-03-01 13:17:00,30.7,9.9,29.42,North,-999,-999.0,-999.0,41,0.00,,,0.00,meteohub,2013-03-01 19:17:00,
2013-03-01 13:22:00,30.9,10.0,29.42,North,-999,-999.0,-999.0,41,0.00,,,0.00,meteohub,2013-03-01 19:22:00,
2013-03-01 13:27:00,31.1,10.2,29.42,North,-999,-999.0,-999.0,41,0.00,,,0.00,meteohub,2013-03-01 19:27:00,
2013-03-01 13:32:00,31.1,10.2,29.42,North,-999,-999.0,-999.0,41,0.00,,,0.00,meteohub,2013-03-01 19:32:00,
2013-03-01 13:37:00,31.1,10.2,29.42,North,-999,-999.0,-999.0,41,0.00,,,0.00,meteohub,2013-03-01 19:37:00,
2013-03-01 13:42:00,31.1,10.2,29.42,North,-999,-999.0,-999.0,41,0.00,,,0.00,meteohub,2013-03-01 19:42:00,
2013-03-01 13:47:00,31.3,10.2,29.42,North,-999,-999.0,-999.0,41,0.00,,,0.00,meteohub,2013-03-01 19:47:00,
2013-03-01 13:52:00,31.5,10.4,29.42,North,-999,-999.0,-999.0,41,0.00,,,0.00,meteohub,2013-03-01 19:52:00,
2013-03-01 13:57:00,31.8,10.8,29.42,North,-999,-999.0,-999.0,41,0.00,,,0.00,meteohub,2013-03-01 19:57:00,
2013-03-01 14:02:00,32.0,10.9,29.42,North,-999,-999.0,-999.0,41,0.00,,,0.00,meteohub,2013-03-01 20:02:00,
2013-03-01 14:07:00,31.8,10.8,29.42,North,-999,-999.0,-999.0,41,0.00,,,0.00,meteohub,2013-03-01 20:07:00,
2013-03-01 14:12:00,31.6,10.6,29.42,North,-999,-999.0,-999.0,41,0.00,,,0.00,meteohub,2013-03-01 20:12:00,
2013-03-01 14:17:00,31.3,10.2,29.42,North,-999,-999.0,-999.0,41,0.00,,,0.00,meteohub,2013-03-01 20:17:00,
2013-03-01 14:23:00,31.5,10.4,29.42,North,-999,-999.0,-999.0,41,0.00,,,0.00,meteohub,2013-03-01 20:23:00,
2013-03-01 14:28:00,31.3,10.2,29.42,North,-999,-999.0,-999.0,41,0.00,,,0.00,meteohub,2013-03-01 20:28:00,
2013-03-01 14:33:00,31.1,10.2,29.42,North,-999,-999.0,-999.0,41,0.00,,,0.00,meteohub,2013-03-01 20:33:00,
2013-03-01 14:39:00,30.9,10.0,29.42,North,-999,-999.0,-999.0,41,0.00,,,0.00,meteohub,2013-03-01 20:39:00,
2013-03-01 14:44:00,30.9,10.0,29.42,North,-999,-999.0,-999.0,41,0.00,,,0.00,meteohub,2013-03-01 20:44:00,
2013-03-01 14:49:00,31.1,10.2,29.42,North,-999,-999.0,-999.0,41,0.00,,,0.00,meteohub,2013-03-01 20:49:00,
2013-03-01 14:55:00,30.9,10.0,29.42,North,-999,-999.0,-999.0,41,0.00,,,0.00,meteohub,2013-03-01 20:55:00,
2013-03-01 15:00:00,30.7,9.9,29.42,North,-999,-999.0,-999.0,41,0.00,,,0.00,meteohub,2013-03-01 21:00:00,
2013-03-01 15:05:00,30.6,9.7,29.42,North,-999,-999.0,-999.0,41,0.00,,,0.00,meteohub,2013-03-01 21:05:00,
2013-03-01 15:10:00,30.9,10.0,29.42,North,-999,-999.0,-999.0,41,0.00,,,0.00,meteohub,2013-03-01 21:10:00,
2013-03-01 15:16:00,31.1,10.2,29.42,North,-999,-999.0,-999.0,41,0.00,,,0.00,meteohub,2013-03-01 21:16:00,
2013-03-01 15:21:00,30.7,9.9,29.42,North,-999,-999.0,-999.0,41,0.00,,,0.00,meteohub,2013-03-01 21:21:00,
2013-03-01 15:26:00,30.7,9.9,29.42,North,-999,-999.0,-999.0,41,0.00,,,0.00,meteohub,2013-03-01 21:26:00,
2013-03-01 15:31:00,30.6,9.7,29.42,North,-999,-999.0,-999.0,41,0.00,,,0.00,meteohub,2013-03-01 21:31:00,
2013-03-01 15:37:00,30.7,9.9,29.42,North,-999,-999.0,-999.0,41,0.00,,,0.00,meteohub,2013-03-01 21:37:00,
2013-03-01 15:42:00,30.6,9.7,29.45,North,-999,-999.0,-999.0,41,0.00,,,0.00,meteohub,2013-03-01 21:42:00,
2013-03-01 15:47:00,30.9,10.0,29.45,North,-999,-999.0,-999.0,41,0.00,,,0.00,meteohub,2013-03-01 21:47:00,
2013-03-01 15:52:00,30.9,10.0,29.45,North,-999,-999.0,-999.0,41,0.00,,,0.00,meteohub,2013-03-01 21:52:00,
2013-03-01 15:57:00,30.7,9.9,29.45,North,-999,-999.0,-999.0,41,0.00,,,0.00,meteohub,2013-03-01 21:57:00,
2013-03-01 16:02:00,30.6,9.7,29.45,North,-999,-999.0,-999.0,41,0.00,,,0.00,meteohub,2013-03-01 22:02:00,
2013-03-01 16:07:00,30.4,9.5,29.45,North,-999,-999.0,-999.0,41,0.00,,,0.00,meteohub,2013-03-01 22:07:00,
2013-03-01 16:13:00,30.2,9.3,29.45,North,-999,-999.0,-999.0,41,0.00,,,0.00,meteohub,2013-03-01 22:13:00,
2013-03-01 16:18:00,30.6,9.7,29.45,North,-999,-999.0,-999.0,41,0.00,,,0.00,meteohub,2013-03-01 22:18:00,
2013-03-01 16:23:00,30.2,9.3,29.45,North,-999,-999.0,-999.0,41,0.00,,,0.00,meteohub,2013-03-01 22:23:00,
2013-03-01 16:28:00,30.2,9.9,29.45,North,-999,-999.0,-999.0,42,0.00,,,0.00,meteohub,2013-03-01 22:28:00,
2013-03-01 16:34:00,30.2,9.9,29.45,North,-999,-999.0,-999.0,42,0.00,,,0.00,meteohub,2013-03-01 22:34:00,
2013-03-01 16:39:00,30.2,9.9,29.45,North,-999,-999.0,-999.0,42,0.00,,,0.00,meteohub,2013-03-01 22:39:00,
2013-03-01 16:44:00,30.2,9.9,29.45,North,-999,-999.0,-999.0,42,0.00,,,0.00,meteohub,2013-03-01 22:44:00,
2013-03-01 16:50:00,30.0,9.7,29.45,North,-999,-999.0,-999.0,42,0.00,,,0.00,meteohub,2013-03-01 22:50:00,
2013-03-01 16:57:00,30.0,9.7,29.45,North,-999,-999.0,-999.0,42,0.00,,,0.00,meteohub,2013-03-01 22:57:00,
2013-03-01 17:02:00,30.0,9.7,29.45,North,-999,-999.0,-999.0,42,0.00,,,0.00,meteohub,2013-03-01 23:02:00,
2013-03-01 17:07:00,30.0,9.7,29.45,North,-999,-999.0,-999.0,42,0.00,,,0.00,meteohub,2013-03-01 23:07:00,
2013-03-01 17:12:00,29.8,9.5,29.45,North,-999,-999.0,-999.0,42,0.00,,,0.00,meteohub,2013-03-01 23:12:00,
2013-03-01 17:17:00,29.8,9.5,29.45,North,-999,-999.0,-999.0,42,0.00,,,0.00,meteohub,2013-03-01 23:17:00,
2013-03-01 17:22:00,29.7,9.3,29.45,North,-999,-999.0,-999.0,42,0.00,,,0.00,meteohub,2013-03-01 23:22:00,
2013-03-01 17:27:00,29.7,9.3,29.45,North,-999,-999.0,-999.0,42,0.00,,,0.00,meteohub,2013-03-01 23:27:00,
2013-03-01 17:32:00,29.7,9.3,29.45,North,-999,-999.0,-999.0,42,0.00,,,0.00,meteohub,2013-03-01 23:32:00,
2013-03-01 17:37:00,29.5,9.1,29.45,North,-999,-999.0,-999.0,42,0.00,,,0.00,meteohub,2013-03-01 23:37:00,
2013-03-01 17:42:00,29.5,9.1,29.45,North,-999,-999.0,-999.0,42,0.00,,,0.00,meteohub,2013-03-01 23:42:00,
2013-03-01 17:47:00,29.5,9.1,29.45,North,-999,-999.0,-999.0,42,0.00,,,0.00,meteohub,2013-03-01 23:47:00,
2013-03-01 17:52:00,29.3,9.0,29.45,North,-999,-999.0,-999.0,42,0.00,,,0.00,meteohub,2013-03-01 23:52:00,
2013-03-01 17:57:00,29.3,9.0,29.48,North,-999,-999.0,-999.0,42,0.00,,,0.00,meteohub,2013-03-01 23:57:00,
2013-03-01 18:02:00,29.3,9.0,29.48,North,-999,-999.0,-999.0,42,0.00,,,0.00,meteohub,2013-03-02 00:02:00,
2013-03-01 18:07:00,29.3,9.0,29.48,North,-999,-999.0,-999.0,42,0.00,,,0.00,meteohub,2013-03-02 00:07:00,
2013-03-01 18:12:00,29.1,9.0,29.48,North,-999,-999.0,-999.0,42,0.00,,,0.00,meteohub,2013-03-02 00:12:00,
2013-03-01 18:17:00,29.1,9.0,29.48,North,-999,-999.0,-999.0,42,0.00,,,0.00,meteohub,2013-03-02 00:17:00,
2013-03-01 18:22:00,29.1,9.0,29.48,North,-999,-999.0,-999.0,42,0.00,,,0.00,meteohub,2013-03-02 00:22:00,
2013-03-01 18:27:00,28.9,8.8,29.48,North,-999,-999.0,-999.0,42,0.00,,,0.00,meteohub,2013-03-02 00:27:00,
2013-03-01 18:32:00,28.9,8.8,29.48,North,-999,-999.0,-999.0,42,0.00,,,0.00,meteohub,2013-03-02 00:32:00,
2013-03-01 18:37:00,28.8,8.6,29.48,North,-999,-999.0,-999.0,42,0.00,,,0.00,meteohub,2013-03-02 00:37:00,
2013-03-01 18:43:00,28.8,8.6,29.48,North,-999,-999.0,-999.0,42,0.00,,,0.00,meteohub,2013-03-02 00:43:00,
2013-03-01 18:48:00,28.8,8.6,29.48,North,-999,-999.0,-999.0,42,0.00,,,0.00,meteohub,2013-03-02 00:48:00,
2013-03-01 18:53:00,28.6,8.4,29.48,North,-999,-999.0,-999.0,42,0.00,,,0.00,meteohub,2013-03-02 00:53:00,
2013-03-01 18:58:00,28.6,8.4,29.48,North,-999,-999.0,-999.0,42,0.00,,,0.00,meteohub,2013-03-02 00:58:00,
2013-03-01 19:04:00,28.4,8.8,29.48,North,-999,-999.0,-999.0,43,0.00,,,0.00,meteohub,2013-03-02 01:04:00,
2013-03-01 19:09:00,28.4,8.8,29.48,North,-999,-999.0,-999.0,43,0.00,,,0.00,meteohub,2013-03-02 01:09:00,
2013-03-01 19:14:00,28.4,8.2,29.48,North,-999,-999.0,-999.0,42,0.00,,,0.00,meteohub,2013-03-02 01:14:00,
2013-03-01 19:19:00,28.2,8.1,29.48,North,-999,-999.0,-999.0,42,0.00,,,0.00,meteohub,2013-03-02 01:19:00,
2013-03-01 19:24:00,28.0,7.9,29.48,North,-999,-999.0,-999.0,42,0.00,,,0.00,meteohub,2013-03-02 01:24:00,
2013-03-01 19:30:00,27.9,7.7,29.48,North,-999,-999.0,-999.0,42,0.00,,,0.00,meteohub,2013-03-02 01:30:00,
2013-03-01 19:35:00,27.7,7.5,29.48,North,-999,-999.0,-999.0,42,0.00,,,0.00,meteohub,2013-03-02 01:35:00,
2013-03-01 19:40:00,27.1,7.2,29.48,North,-999,-999.0,-999.0,42,0.00,,,0.00,meteohub,2013-03-02 01:40:00,
2013-03-01 19:45:00,27.0,7.0,29.48,North,-999,-999.0,-999.0,42,0.00,,,0.00,meteohub,2013-03-02 01:45:00,
2013-03-01 19:51:00,27.0,7.0,29.48,North,-999,-999.0,-999.0,42,0.00,,,0.00,meteohub,2013-03-02 01:51:00,
2013-03-01 19:56:00,27.0,7.0,29.51,North,-999,-999.0,-999.0,42,0.00,,,0.00,meteohub,2013-03-02 01:56:00,
2013-03-01 20:01:00,27.1,7.2,29.51,North,-999,-999.0,-999.0,42,0.00,,,0.00,meteohub,2013-03-02 02:01:00,
2013-03-01 20:07:00,27.0,7.0,29.51,North,-999,-999.0,-999.0,42,0.00,,,0.00,meteohub,2013-03-02 02:07:00,
2013-03-01 20:12:00,27.1,7.2,29.48,North,-999,-999.0,-999.0,42,0.00,,,0.00,meteohub,2013-03-02 02:12:00,
2013-03-01 20:17:00,27.3,7.2,29.48,North,-999,-999.0,-999.0,42,0.00,,,0.00,meteohub,2013-03-02 02:17:00,
2013-03-01 20:22:00,27.1,7.2,29.48,North,-999,-999.0,-999.0,42,0.00,,,0.00,meteohub,2013-03-02 02:22:00,
2013-03-01 20:27:00,27.3,7.2,29.51,North,-999,-999.0,-999.0,42,0.00,,,0.00,meteohub,2013-03-02 02:27:00,
2013-03-01 20:32:00,27.3,7.2,29.51,North,-999,-999.0,-999.0,42,0.00,,,0.00,meteohub,2013-03-02 02:32:00,
2013-03-01 20:37:00,27.3,7.2,29.51,North,-999,-999.0,-999.0,42,0.00,,,0.00,meteohub,2013-03-02 02:37:00,
2013-03-01 20:42:00,27.3,7.2,29.48,North,-999,-999.0,-999.0,42,0.00,,,0.00,meteohub,2013-03-02 02:42:00,
2013-03-01 20:47:00,27.3,7.2,29.48,North,-999,-999.0,-999.0,42,0.00,,,0.00,meteohub,2013-03-02 02:47:00,
2013-03-01 20:53:00,27.3,7.2,29.48,North,-999,-999.0,-999.0,42,0.00,,,0.00,meteohub,2013-03-02 02:53:00,
2013-03-01 20:58:00,27.3,7.2,29.51,North,-999,-999.0,-999.0,42,0.00,,,0.00,meteohub,2013-03-02 02:58:00,
2013-03-01 21:04:00,27.3,7.2,29.51,North,-999,-999.0,-999.0,42,0.00,,,0.00,meteohub,2013-03-02 03:04:00,
2013-03-01 21:09:00,27.1,7.2,29.51,North,-999,-999.0,-999.0,42,0.00,,,0.00,meteohub,2013-03-02 03:09:00,
2013-03-01 21:14:00,27.3,7.2,29.51,North,-999,-999.0,-999.0,42,0.00,,,0.00,meteohub,2013-03-02 03:14:00,
2013-03-01 21:19:00,27.5,7.3,29.51,North,-999,-999.0,-999.0,42,0.00,,,0.00,meteohub,2013-03-02 03:19:00,
2013-03-01 21:25:00,27.5,7.3,29.51,North,-999,-999.0,-999.0,42,0.00,,,0.00,meteohub,2013-03-02 03:25:00,
2013-03-01 21:30:00,27.5,7.3,29.51,North,-999,-999.0,-999.0,42,0.00,,,0.00,meteohub,2013-03-02 03:30:00,
2013-03-01 21:35:00,27.7,7.5,29.51,North,-999,-999.0,-999.0,42,0.00,,,0.00,meteohub,2013-03-02 03:35:00,
2013-03-01 21:41:00,27.7,7.5,29.51,North,-999,-999.0,-999.0,42,0.00,,,0.00,meteohub,2013-03-02 03:41:00,
2013-03-01 21:46:00,27.7,7.5,29.51,North,-999,-999.0,-999.0,42,0.00,,,0.00,meteohub,2013-03-02 03:46:00,
2013-03-01 21:51:00,27.7,7.5,29.51,North,-999,-999.0,-999.0,42,0.00,,,0.00,meteohub,2013-03-02 03:51:00,
2013-03-01 21:57:00,27.7,7.5,29.51,North,-999,-999.0,-999.0,42,0.00,,,0.00,meteohub,2013-03-02 03:57:00,
2013-03-01 22:02:00,27.7,7.5,29.51,North,-999,-999.0,-999.0,42,0.00,,,0.00,meteohub,2013-03-02 04:02:00,
2013-03-01 22:07:00,27.7,7.5,29.51,North,-999,-999.0,-999.0,42,0.00,,,0.00,meteohub,2013-03-02 04:07:00,
2013-03-01 22:12:00,27.7,7.5,29.51,North,-999,-999.0,-999.0,42,0.00,,,0.00,meteohub,2013-03-02 04:12:00,
2013-03-01 22:17:00,27.7,7.5,29.51,North,-999,-999.0,-999.0,42,0.00,,,0.00,meteohub,2013-03-02 04:17:00,
2013-03-01 22:23:00,27.7,7.5,29.51,North,-999,-999.0,-999.0,42,0.00,,,0.00,meteohub,2013-03-02 04:23:00,
2013-03-01 22:28:00,27.5,7.3,29.51,North,-999,-999.0,-999.0,42,0.00,,,0.00,meteohub,2013-03-02 04:28:00,
2013-03-01 22:33:00,27.5,7.3,29.51,North,-999,-999.0,-999.0,42,0.00,,,0.00,meteohub,2013-03-02 04:33:00,
2013-03-01 22:39:00,27.5,7.3,29.51,North,-999,-999.0,-999.0,42,0.00,,,0.00,meteohub,2013-03-02 04:39:00,
2013-03-01 22:44:00,27.5,7.3,29.51,North,-999,-999.0,-999.0,42,0.00,,,0.00,meteohub,2013-03-02 04:44:00,
2013-03-01 22:50:00,27.3,7.2,29.51,North,-999,-999.0,-999.0,42,0.00,,,0.00,meteohub,2013-03-02 04:50:00,
2013-03-01 22:55:00,27.3,7.2,29.51,North,-999,-999.0,-999.0,42,0.00,,,0.00,meteohub,2013-03-02 04:55:00,
2013-03-01 23:00:00,27.3,7.2,29.51,North,-999,-999.0,-999.0,42,0.00,,,0.00,meteohub,2013-03-02 05:00:00,
2013-03-01 23:01:00,27.3,7.2,29.51,North,-999,-999.0,-999.0,42,0.00,,,0.00,meteohub,2013-03-02 05:01:00,
2013-03-01 23:06:00,27.3,7.2,29.51,North,-999,-999.0,-999.0,42,0.00,,,0.00,meteohub,2013-03-02 05:06:00,
2013-03-01 23:12:00,27.1,7.2,29.51,North,-999,-999.0,-999.0,42,0.00,,,0.00,meteohub,2013-03-02 05:12:00,
2013-03-01 23:17:00,27.3,7.2,29.51,North,-999,-999.0,-999.0,42,0.00,,,0.00,meteohub,2013-03-02 05:17:00,
2013-03-01 23:22:00,27.1,7.2,29.51,North,-999,-999.0,-999.0,42,0.00,,,0.00,meteohub,2013-03-02 05:22:00,
2013-03-01 23:27:00,27.1,7.2,29.51,North,-999,-999.0,-999.0,42,0.00,,,0.00,meteohub,2013-03-02 05:27:00,
2013-03-01 23:32:00,27.1,7.2,29.51,North,-999,-999.0,-999.0,42,0.00,,,0.00,meteohub,2013-03-02 05:32:00,
2013-03-01 23:37:00,27.1,7.2,29.51,North,-999,-999.0,-999.0,42,0.00,,,0.00,meteohub,2013-03-02 05:37:00,
2013-03-01 23:42:00,27.1,7.2,29.51,North,-999,-999.0,-999.0,42,0.00,,,0.00,meteohub,2013-03-02 05:42:00,
2013-03-01 23:47:00,27.1,7.2,29.51,North,-999,-999.0,-999.0,42,0.00,,,0.00,meteohub,2013-03-02 05:47:00,
2013-03-01 23:52:00,27.1,7.2,29.51,North,-999,-999.0,-999.0,42,0.00,,,0.00,meteohub,2013-03-02 05:52:00,
2013-03-01 23:57:00,27.1,7.2,29.51,North,-999,-999.0,-999.0,42,0.00,,,0.00,meteohub,2013-03-02 05:57:00,